Погода в Каралате

Россия / Астраханская область     45°54′42″N   48°18′14″E
темп.,
°C
ветер,
м/с
пор.,
м/с
влажн.,
%
обл.,
%
осадки,
мм/ч
давл.,
гПа
погр.,
м
8 мая, сб
сб801:00+13ююз37595 0.0 1019110
04:00+13юз34650 0.0 101849
07:00+15юз24635 0.0 1018136
10:00+22ю44393 0.0 10181129
13:00+23ю54300 0.0 10181559
16:00+22ююв65291 0.0 10171214
19:00+19ю5538100 0.0 1017607
22:00+15ююв355898 0.0 1017112
9 мая, вс
вс901:00+15ююв3657100 0.0 1015114
04:00+15юв49645 0.0 1014165
07:00+18юв6125943 0.0 1013774
10:00+21юв912426 0.0 1012980
13:00+22юв10144864 0.0 10111167
16:00+22ююв91449100 0.0 10101178
19:00+20ююв612565 0.0 1009872
22:00+17юв3770100 0.0 1010192
10 мая, пн
пн1001:00+17ю3578100 0.0 1009399
04:00+11з101489100 3.1 1011745
07:00+10зсз81481100 1.3 1013740
10:00+11зсз91171100 1.3 10151000
13:00+10з81180100 3.3 1017994
16:00+12зсз5958100 4.3 10181534
19:00+14ссз34505 0.0 1018485
22:00+10в11650 0.0 101910
11 мая, вт
вт1101:00+9с01650 0.0 102010
04:00+8в337414 0.0 102133
07:00+11с1262100 0.0 102177
10:00+15ссв334493 0.0 10211051
13:00+17св553977 0.0 10211439
16:00+17св55365 0.0 10201380
19:00+16ссв333947 0.0 1020899
22:00+12ссв33532 0.0 102045
12 мая, ср
ср1201:00+11ссз11616 0.0 102010
04:00+10с11645 0.0 101910
07:00+12св22640 0.0 1020123
10:00+18в22440 0.0 1019785
13:00+22юв44400 0.0 10181440
16:00+21юв55480 0.0 10181084
19:00+19юв34600 0.0 1017642
22:00+16юв23790 0.0 101848